[[{"header":{"parameterUnit":"m.s-1","parameterCategory":1,"la1":30.2991,"la2":30.254,"lo1":-89.0895,"lo2":-89.0444,"dy":0.0017,"dx":0.0017,"nx":28,"ny":28,"refTime":"2024-12-11T03:00:00:Z","depth":0,"parameterNumber":2,"parameterNumberName":"U-component_of_WINDS"},"data":[0,0,0,0,0,0,0,0,0,0,0,0,0,0,0,0,0,0,0,0,0,0,0,0,0,0,0,0,0,0,0,0,0,0,0,0,0,0,0,0,0,0,0,0,0,0,0,0,0,0,0,0,0,0,0,0,0,0,4.7681,4.7681,0,4.7698,4.7699,4.7699,4.7629,4.7627,4.7625,4.7623,4.7641,4.7643,4.7645,0,0,0,0,0,0,0,0,0,0,0,0,0,4.7588,4.759,4.7681,4.7681,4.7681,4.7698,4.7699,4.7699,4.7629,4.7627,4.7624,4.7622,4.764,4.7643,4.7646,0,0,0,0,0,0,0,0,0,0,0,0,0,4.7619,4.7591,4.7681,4.7649,4.7646,4.7698,4.7699,4.7699,4.763,4.7627,4.7624,4.7621,4.7639,4.7642,4.7646,4.773,0,0,4.7657,4.7658,0,0,0,0,0,0,0,0,4.7618,4.7623,4.7653,4.7651,4.7648,4.7658,4.7672,4.7709,4.7631,4.7636,4.7623,4.7619,4.7649,4.7652,4.7662,4.7731,4.7731,4.7657,4.7659,4.7661,4.7662,0,0,0,0,0,0,0,4.7616,4.7622,4.7688,4.7654,4.7651,4.7634,4.7635,4.7679,4.766,4.7635,4.763,4.7633,4.7647,4.7658,4.7662,4.7732,4.7657,4.766,4.7662,4.7664,4.7873,4.7876,0,0,0,0,0,0,4.7618,4.762,4.7687,4.7688,4.7625,4.7638,4.7639,4.7658,4.7659,4.7656,4.7636,4.763,4.7654,4.7657,4.7662,4.7761,4.7661,4.7664,4.7666,4.787,4.7874,4.7877,0,0,0,0,0,0,4.7616,4.7624,4.7686,4.7653,4.766,4.7643,4.7665,4.766,4.7671,4.7659,4.7656,4.7651,4.7651,4.7657,4.7714,4.7761,4.7666,4.7669,4.7866,4.7871,4.7876,4.7961,0,0,0,0,0,0,4.7614,4.7624,4.7655,4.7654,4.7662,4.7738,4.7668,4.7663,4.7678,4.767,4.7673,4.767,4.7649,4.7709,4.7718,4.7764,4.7672,4.7861,4.7868,4.7874,4.7954,4.7968,4.798,0,0,0,0,0,4.761,4.7678,4.7657,4.7666,4.77,4.7741,4.7745,4.772,4.7682,4.7714,4.7706,4.767,4.7755,4.7716,4.7725,4.7773,4.7858,4.7866,4.7873,4.7948,4.7965,4.798,0,0,0,0,0,0,4.7684,4.7677,4.7654,4.7723,4.7733,4.7729,4.7768,4.7739,4.776,4.7752,4.772,4.7722,4.7785,4.7784,4.7741,4.7856,4.78,4.781,4.7853,4.787,4.7883,4.7882,4.7675,0,0,0,0,0,4.7708,4.7742,4.7734,4.7796,4.7802,4.7785,4.7801,4.7781,4.7791,4.7794,4.7791,4.7801,4.7831,4.785,4.7876,4.7954,4.7954,4.7992,4.8005,4.8016,4.8025,4.8068,4.8085,4.7903,4.7902,4.7902,0,0,4.7758,4.7759,4.7782,4.781,4.7816,4.7852,4.7788,4.7828,4.7855,4.78,4.7854,4.7853,4.7862,4.7931,4.7961,4.7932,4.8076,4.8026,4.8035,4.8038,4.8077,4.8095,4.811,4.7908,4.7907,4.7906,0,0,4.7869,4.7872,4.7925,4.7932,4.7942,4.793,4.7943,4.7944,4.7941,4.7995,4.7956,4.7987,4.8037,4.8046,4.8058,4.8175,4.8143,4.8184,4.8254,4.8296,4.8311,4.8323,4.8366,4.8382,4.8193,4.8193,4.8193,0,4.793,4.7982,4.7955,4.7999,4.8013,4.7967,4.8021,4.8029,4.8047,4.8058,4.8026,4.809,4.8093,4.8164,4.8193,4.8203,4.8218,4.8183,4.8311,4.8323,4.8334,4.8375,4.8391,4.8198,4.8198,4.8197,4.8197,0,4.8058,4.8095,4.8136,4.8156,4.8175,4.8223,4.8205,4.8227,4.8207,4.8199,4.8256,4.8258,4.8285,4.83,4.828,4.8369,4.8352,4.8316,4.8259,4.8357,4.8395,4.841,4.8206,4.8204,4.8202,4.8201,0,0,4.8212,4.8218,4.8234,4.8243,4.8252,4.828,4.8328,4.8355,4.8375,4.839,4.8429,4.8475,4.8443,4.8455,4.8436,4.8473,4.8568,4.8433,4.8433,4.8459,4.8667,4.8694,4.8712,4.8547,4.855,4.8552,4.8667,0,4.8321,4.8402,4.8381,4.8461,4.8496,4.8454,4.8496,4.8506,4.8501,4.853,4.8524,4.8557,4.8511,4.8519,4.8554,4.8549,4.8609,4.854,4.8584,4.8585,4.8582,4.8732,4.8759,4.8868,4.8681,4.8684,4.8685,0,4.8458,4.848,4.8564,4.857,4.8583,4.8621,4.8645,4.8673,4.8685,4.8678,4.8695,4.8669,4.8716,4.866,4.8726,4.868,4.8697,4.8697,4.8701,4.8704,4.8641,4.8739,4.8901,4.8918,4.8708,4.8706,4.8705,0,4.8564,4.8614,4.8671,4.8681,4.8688,4.8715,4.872,4.8728,4.8747,4.8768,4.878,4.8806,4.8821,4.8842,4.8824,4.8785,4.8894,4.8836,4.889,4.8891,4.8914,4.8913,4.9082,4.8926,4.8925,4.8925,4.8925,0,4.8688,4.8741,4.8719,4.8755,4.8814,4.879,4.885,4.8849,4.8858,4.8893,4.8858,4.8892,4.8866,4.8898,4.8885,4.8943,4.8949,4.8946,4.8942,4.8949,4.895,4.8959,4.8951,4.8929,4.8928,4.8928,4.8927,0,4.8815,4.8803,4.8863,4.8866,4.8868,4.8912,4.8914,4.8947,4.894,4.8986,4.8995,4.8984,4.902,4.9005,4.9043,4.9034,4.9108,4.9093,4.9104,4.91,4.9156,4.9151,4.9337,4.9361,4.9189,4.919,4.9192,0,4.8895,4.8936,4.8944,4.8965,4.8972,4.9007,4.9026,4.9004,4.9025,4.9043,4.9075,4.9108,4.9134,4.9194,4.9189,4.9219,4.9205,4.9268,4.9209,4.9216,4.9207,4.9205,4.9209,4.928,4.9282,4.9283,4.9285,0,4.9038,4.9031,4.9059,4.9087,4.9111,4.9132,4.9149,4.9169,4.9148,4.9174,4.9211,4.9231,4.9271,4.9305,4.9331,4.9336,4.9308,4.9304,4.9318,4.9326,4.9331,4.933,4.9137,4.9299,4.9298,4.9297,4.9296,4.9295,4.9145,4.918,4.9191,4.9225,4.9237,4.9254,4.9286,4.9284,4.9315,4.9346,4.9331,4.9375,4.9387,4.942,4.9429,4.9463,4.9439,4.9459,4.9464,4.947,4.9477,4.9326,4.9468,4.9468,4.9467,4.9467,4.9467,0,4.9287,4.9293,4.9325,4.9351,4.9378,4.935,4.9369,4.9393,4.9432,4.9446,4.9473,4.9516,4.955,4.9549,4.958,4.9608,4.9596,4.9617,4.9614,4.9616,4.9497,4.9482,4.9626,4.9626,4.9626,4.9626,4.9626,4.9626,4.9364,4.9422,4.9417,4.9481,4.9486,4.9529,4.9542,4.9559,4.957,4.9621,4.9648,4.9648,4.9657,4.9689,4.9719,4.9718,4.9731,4.9757,4.9751,4.964,4.9624,4.9609,4.9595,4.976,4.976,4.9867,4.9868,4.9869]},{"header":{"parameterUnit":"m.s-1","parameterCategory":1,"la1":30.2991,"la2":30.254,"lo1":-89.0895,"lo2":-89.0444,"dy":0.0017,"dx":0.0017,"nx":28,"ny":28,"refTime":"2024-12-11T03:00:00:Z","depth":0,"parameterNumber":3,"parameterNumberName":"V-component_of_WINDS"},"data":[0,0,0,0,0,0,0,0,0,0,0,0,0,0,0,0,0,0,0,0,0,0,0,0,0,0,0,0,0,0,0,0,0,0,0,0,0,0,0,0,0,0,0,0,0,0,0,0,0,0,0,0,0,0,0,0,0,0,-7.8796,-7.8798,0,-7.8974,-7.8976,-7.8978,-7.894,-7.8936,-7.8933,-7.893,-7.9109,-7.9116,-7.9124,0,0,0,0,0,0,0,0,0,0,0,0,0,-7.842,-7.8427,-7.8796,-7.8798,-7.88,-7.8974,-7.8977,-7.8979,-7.894,-7.8936,-7.8932,-7.8928,-7.9106,-7.9115,-7.9125,0,0,0,0,0,0,0,0,0,0,0,0,0,-7.8589,-7.843,-7.8795,-7.8802,-7.8804,-7.8974,-7.8977,-7.898,-7.8941,-7.8936,-7.8931,-7.8927,-7.9103,-7.9114,-7.9126,-7.9299,0,0,-7.9162,-7.9167,0,0,0,0,0,0,0,0,-7.858,-7.8603,-7.8799,-7.8802,-7.8805,-7.893,-7.891,-7.9086,-7.8942,-7.8889,-7.893,-7.8924,-7.9053,-7.9069,-7.9113,-7.9307,-7.9315,-7.9163,-7.917,-7.9175,-7.9179,0,0,0,0,0,0,0,-7.8568,-7.8595,-7.8866,-7.8802,-7.8805,-7.8796,-7.8814,-7.8943,-7.8997,-7.8893,-7.8891,-7.8913,-7.9054,-7.9102,-7.9117,-7.9317,-7.9163,-7.9173,-7.9181,-7.9185,-7.9666,-7.9671,0,0,0,0,0,0,-7.8554,-7.8586,-7.8861,-7.8872,-7.8678,-7.8807,-7.8827,-7.8895,-7.8995,-7.9006,-7.8917,-7.891,-7.9084,-7.9103,-7.9123,-7.9334,-7.9175,-7.9186,-7.9193,-7.966,-7.9667,-7.9673,0,0,0,0,0,0,-7.8546,-7.8579,-7.8853,-7.8728,-7.8762,-7.8818,-7.8894,-7.8901,-7.8949,-7.9013,-7.9022,-7.8956,-7.9081,-7.9106,-7.9256,-7.934,-7.9192,-7.9202,-7.9653,-7.9662,-7.967,-7.9756,0,0,0,0,0,0,-7.8536,-7.8576,-7.8642,-7.873,-7.8769,-7.8985,-7.8899,-7.8908,-7.897,-7.8963,-7.9052,-7.9062,-7.9079,-7.9239,-7.9268,-7.9353,-7.9212,-7.9646,-7.9657,-7.9667,-7.9746,-7.9767,-7.9784,0,0,0,0,0,-7.8522,-7.8658,-7.8646,-7.8679,-7.8853,-7.8989,-7.9012,-7.9029,-7.8976,-7.9044,-7.9086,-7.9059,-7.9326,-7.9255,-7.9287,-7.9377,-7.9641,-7.9654,-7.9666,-7.9738,-7.9763,-7.9784,0,0,0,0,0,0,-7.8576,-7.8669,-7.8657,-7.8825,-7.89,-7.8983,-7.9067,-7.9054,-7.9144,-7.9134,-7.915,-7.9171,-7.9325,-7.9365,-7.9285,-7.9551,-7.9476,-7.9496,-7.9519,-7.9543,-7.9562,-7.9549,-7.9221,0,0,0,0,0,-7.8608,-7.8712,-7.8787,-7.8928,-7.8966,-7.9011,-7.9071,-7.9078,-7.9156,-7.9186,-7.9239,-7.9314,-7.9415,-7.9481,-7.9577,-7.9752,-7.9772,-7.983,-7.9849,-7.9864,-7.9881,-7.998,-8.0007,-7.9715,-7.9715,-7.9715,0,0,-7.8674,-7.8738,-7.8802,-7.8941,-7.8999,-7.9107,-7.9038,-7.9152,-7.9232,-7.9203,-7.935,-7.9391,-7.9476,-7.9641,-7.9715,-7.9679,-7.9967,-7.9881,-7.9892,-7.9901,-7.9996,-8.0024,-8.0048,-7.9724,-7.9722,-7.9721,0,0,-7.885,-7.8908,-7.9033,-7.9095,-7.9186,-7.9215,-7.9245,-7.9331,-7.9359,-7.9506,-7.9488,-7.9582,-7.9755,-7.9818,-7.9872,-8.0076,-8.0056,-8.0107,-8.0206,-8.0302,-8.0325,-8.0345,-8.042,-8.0447,-8.0123,-8.0124,-8.0124,0,-7.892,-7.9081,-7.9099,-7.9218,-7.928,-7.9262,-7.939,-7.9448,-7.9565,-7.9609,-7.9567,-7.9786,-7.9842,-8.0022,-8.0073,-8.0116,-8.0153,-8.0096,-8.032,-8.0341,-8.036,-8.0432,-8.046,-8.0129,-8.0129,-8.0128,-8.0127,0,-7.9165,-7.9277,-7.9367,-7.9484,-7.9557,-7.9679,-7.9716,-7.9787,-7.9789,-7.9823,-7.9975,-8.0042,-8.0153,-8.0196,-8.0198,-8.0378,-8.0353,-8.0316,-8.0241,-8.0394,-8.0462,-8.0489,-8.0137,-8.0135,-8.0134,-8.0132,0,0,-7.9377,-7.9505,-7.9538,-7.9593,-7.9693,-7.978,-7.9903,-8.0014,-8.0076,-8.0158,-8.0262,-8.0411,-8.0378,-8.044,-8.0449,-8.0533,-8.0694,-8.0486,-8.0488,-8.0524,-8.0899,-8.0928,-8.0959,-8.0681,-8.0687,-8.0691,-8.0893,0,-7.9563,-7.9781,-7.9803,-7.9998,-8.0103,-8.0089,-8.0196,-8.0269,-8.0305,-8.04,-8.0438,-8.0545,-8.0492,-8.053,-8.0613,-8.0657,-8.077,-8.0642,-8.0779,-8.0783,-8.0759,-8.0994,-8.1024,-8.1211,-8.0919,-8.0924,-8.0927,0,-7.9809,-7.9902,-8.0109,-8.0198,-8.0243,-8.0339,-8.0445,-8.0535,-8.0619,-8.0639,-8.0711,-8.0709,-8.0836,-8.0757,-8.0933,-8.0846,-8.0903,-8.0934,-8.0941,-8.0955,-8.0865,-8.1016,-8.1271,-8.13,-8.0968,-8.0965,-8.0962,0,-7.9947,-8.0123,-8.027,-8.0317,-8.0424,-8.0493,-8.054,-8.062,-8.0686,-8.0778,-8.0821,-8.0926,-8.0983,-8.1064,-8.1092,-8.1031,-8.1268,-8.1189,-8.1289,-8.1289,-8.1339,-8.1336,-8.1609,-8.1374,-8.1374,-8.1373,-8.1373,0,-8.0153,-8.0281,-8.0334,-8.0424,-8.0568,-8.0591,-8.0732,-8.0776,-8.0847,-8.0947,-8.094,-8.1033,-8.1063,-8.1161,-8.1183,-8.1327,-8.1352,-8.1373,-8.1378,-8.1375,-8.1372,-8.1413,-8.1401,-8.1381,-8.1379,-8.1378,-8.1376,0,-8.0331,-8.0371,-8.0531,-8.0621,-8.0647,-8.0749,-8.0826,-8.0914,-8.0949,-8.1075,-8.1106,-8.1162,-8.1278,-8.1313,-8.1452,-8.1467,-8.1636,-8.1628,-8.1609,-8.161,-8.1708,-8.1699,-8.2017,-8.2061,-8.1796,-8.1799,-8.1801,0,-8.046,-8.0559,-8.066,-8.0728,-8.0779,-8.0887,-8.0956,-8.0983,-8.1055,-8.1161,-8.1237,-8.1352,-8.1446,-8.1632,-8.1684,-8.1791,-8.1787,-8.1891,-8.1803,-8.1798,-8.1791,-8.1785,-8.1796,-8.1908,-8.1911,-8.1913,-8.1915,0,-8.0687,-8.0703,-8.0803,-8.0913,-8.0996,-8.1082,-8.1165,-8.1221,-8.1261,-8.1342,-8.1462,-8.1536,-8.168,-8.1795,-8.1905,-8.1953,-8.1942,-8.1943,-8.1972,-8.197,-8.1956,-8.1967,-8.1656,-8.1935,-8.1933,-8.1931,-8.193,-8.1929,-8.0846,-8.0934,-8.1021,-8.1134,-8.12,-8.1279,-8.1367,-8.1416,-8.1517,-8.1638,-8.1647,-8.1778,-8.1862,-8.2009,-8.2063,-8.2166,-8.2136,-8.2177,-8.2188,-8.2198,-8.2207,-8.1939,-8.2185,-8.2185,-8.2184,-8.2184,-8.2184,0,-8.1074,-8.113,-8.1234,-8.1353,-8.1442,-8.1426,-8.1518,-8.1594,-8.1709,-8.1789,-8.1883,-8.2023,-8.2136,-8.2198,-8.2311,-8.2381,-8.2379,-8.241,-8.2406,-8.2418,-8.2227,-8.2191,-8.241,-8.241,-8.241,-8.241,-8.241,-8.241,-8.1203,-8.1353,-8.138,-8.1563,-8.1617,-8.1747,-8.1802,-8.1875,-8.194,-8.2097,-8.2191,-8.2232,-8.2306,-8.2425,-8.2528,-8.2544,-8.2586,-8.2621,-8.2633,-8.2454,-8.2431,-8.2409,-8.2376,-8.263,-8.263,-8.2816,-8.2818,-8.2819]}]]